Albion, NE

5:08 PM CST on November 24, 2017 (GMT -0600)
Albion Municipal

Weather History for KBVN - January, 2013

Change the Weather History Date:

Tuesday, January 8, 2013

  Actual Average (KOFK) Record (KOFK)
Temperature  
Mean Temperature 32 °F -  
Max Temperature 49 °F 26 °F 68 °F (2002)
Min Temperature 14 °F 5 °F -20 °F (1913)
Degree Days  
Heating Degree Days 34    
Moisture  
Dew Point 25 °F    
Average Humidity 75    
Maximum Humidity 90    
Minimum Humidity 51    
Precipitation  
Precipitation 0.00 in - - ()
Sea Level Pressure  
Sea Level Pressure 29.89 in    
Wind  
Wind Speed 2 mph (WNW)    
Max Wind Speed 12 mph    
Max Gust Speed -    
Visibility 8 miles    
Events Fog , Snow    
Averages and records for this station are not official NWS values.
T = Trace of Precipitation, MM = Missing Value Source: NWS Daily Summary

Daily Weather History Graph

Daily Weather History Graph

Search for Another Location

Airport or City:

Trip Planner

Search our weather history database for the weather conditions in past years. The results will help you decide how hot, cold, wet, or windy it might be!

Date:

Astronomy

Jan. 08, 2013 Rise Set
Actual Time 7:59 AM CST 5:19 PM CST
Civil Twilight 7:28 AM CST 5:50 PM CST
Nautical Twilight 6:53 AM CST 6:25 PM CST
Astronomical Twilight 6:19 AM CST 6:58 PM CST
Moon 4:33 AM CST (1/8) 2:23 PM CST (1/8)
Length of Visible Light 10h 22m
Length of Day
9h 20m
Waning Crescent, 13% of the Moon is Illuminated
Jan 8
Waning Crescent
Jan 11
New
Jan 18
First Quarter
Jan 26
Full
Feb 3
Last Quarter

Hourly Weather History & Observations

Time (CST) Temp. Windchill Dew Point Humidity Pressure Visibility Wind Dir Wind Speed Gust Speed Precip Events Conditions
12:15 AM 18.5 °F - 15.6 °F 89% 29.89 in 10.0 mi Calm Calm - N/A   Clear
12:35 AM 19.4 °F - 16.9 °F 90% 29.89 in 10.0 mi Calm Calm - N/A   Clear
12:55 AM 19.9 °F - 17.2 °F 89% 29.89 in 10.0 mi Calm Calm - N/A   Clear
1:15 AM 18.0 °F - 15.3 °F 89% 29.89 in 10.0 mi Calm Calm - N/A   Clear
1:35 AM 18.5 °F - 15.8 °F 89% 29.89 in 10.0 mi Calm Calm - N/A   Clear
1:55 AM 16.3 °F - 13.1 °F 87% 29.88 in 10.0 mi Calm Calm - N/A   Scattered Clouds
2:15 AM 16.5 °F - 13.8 °F 89% 29.87 in 10.0 mi Calm Calm - N/A   Clear
2:35 AM 16.7 °F - 14.0 °F 89% 29.87 in 10.0 mi Calm Calm - N/A   Clear
2:55 AM 16.0 °F - 13.3 °F 89% 29.87 in 10.0 mi Calm Calm - N/A   Clear
3:15 AM 16.0 °F - 13.3 °F 89% 29.86 in 10.0 mi Calm Calm - N/A   Clear
3:35 AM 16.0 °F - 13.3 °F 89% 29.86 in 10.0 mi Calm Calm - N/A   Clear
3:55 AM 14.2 °F - 11.1 °F 88% 29.85 in 10.0 mi Calm Calm - N/A   Mostly Cloudy
4:15 AM 15.8 °F - 12.7 °F 88% 29.84 in 10.0 mi Calm Calm - N/A   Overcast
4:35 AM 17.2 °F - 14.5 °F 89% 29.83 in 0.5 mi Calm Calm - N/A Fog Light Freezing Fog
4:55 AM 19.2 °F 14.1 °F 16.7 °F 90% 29.82 in 0.2 mi SE 3.5 mph - N/A Fog Light Freezing Fog
5:15 AM 19.4 °F - 16.7 °F 89% 29.82 in 0.2 mi Calm Calm - N/A Snow Light Snow
5:35 AM 19.2 °F - 16.7 °F 90% 29.82 in 0.2 mi Calm Calm - N/A Fog Light Freezing Fog
6:15 AM 19.4 °F - 16.7 °F 89% 29.82 in 0.2 mi Calm Calm - N/A Fog Light Freezing Fog
6:35 AM 19.2 °F - 16.5 °F 89% 29.82 in 0.2 mi Calm Calm - N/A Fog Light Freezing Fog
6:55 AM - - - N/A% 29.82 in 0.2 mi Calm Calm - N/A Fog Light Freezing Fog
7:35 AM - - - N/A% 29.81 in 0.2 mi Calm Calm - N/A Fog Fog
7:55 AM - - - N/A% 29.82 in 0.2 mi Calm Calm - N/A Fog Fog
8:15 AM - - - N/A% 29.82 in 0.5 mi Calm Calm - N/A Fog Fog
8:35 AM - - - N/A% 29.82 in 1.2 mi Calm Calm - N/A   Overcast
8:55 AM - - - N/A% 29.80 in 2.0 mi Calm Calm - N/A   Overcast
9:15 AM - - - N/A% 29.81 in 5.0 mi Calm Calm - N/A   Haze
9:35 AM - - - N/A% 29.79 in 7.0 mi SE 4.6 mph - N/A   Clear
9:55 AM - - - N/A% 29.81 in 7.0 mi South 3.5 mph - N/A   Clear
10:15 AM - - - N/A% 29.81 in 7.0 mi Calm Calm - N/A   Clear
10:35 AM - - - N/A% 29.81 in 7.0 mi SSW 5.8 mph - N/A   Clear
10:55 AM - - - N/A% 29.82 in 7.0 mi SW 5.8 mph - N/A   Clear
11:15 AM - - - N/A% 29.81 in 10.0 mi Calm Calm - N/A   Clear
11:35 AM - - - N/A% 29.80 in 10.0 mi Calm Calm - N/A   Clear
11:55 AM - - - N/A% 29.79 in 10.0 mi WSW 3.5 mph - N/A   Clear
12:15 PM 35.4 °F 30.5 °F 32.2 °F 88% 29.78 in 10.0 mi West 5.8 mph - N/A   Clear
12:35 PM 40.5 °F 34.1 °F 32.0 °F 72% 29.78 in 10.0 mi WNW 10.4 mph - N/A   Clear
12:55 PM 42.6 °F 37.8 °F 32.2 °F 67% 29.78 in 10.0 mi WNW 8.1 mph - N/A   Clear
1:15 PM 43.9 °F 39.9 °F 29.7 °F 57% 29.78 in 10.0 mi WNW 6.9 mph - N/A   Clear
1:55 PM 46.2 °F 42.7 °F 31.3 °F 56% 29.79 in 10.0 mi NW 6.9 mph - N/A   Clear
2:15 PM 49.3 °F - 32.0 °F 51% 29.80 in 10.0 mi NW 11.5 mph - N/A   Clear
2:35 PM 47.8 °F - 32.0 °F 54% 29.82 in 10.0 mi NW 9.2 mph - N/A   Scattered Clouds
2:55 PM 46.4 °F 42.4 °F 32.0 °F 57% 29.84 in 10.0 mi WNW 8.1 mph - N/A   Mostly Cloudy
3:15 PM 44.8 °F 41.6 °F 32.0 °F 61% 29.86 in 10.0 mi NW 5.8 mph - N/A   Overcast
3:35 PM 44.1 °F 42.5 °F 32.0 °F 63% 29.86 in 10.0 mi WNW 3.5 mph - N/A   Overcast
3:55 PM 44.6 °F 43.1 °F 31.6 °F 60% 29.88 in 10.0 mi West 3.5 mph - N/A   Mostly Cloudy
4:15 PM 43.7 °F 41.1 °F 32.0 °F 63% 29.89 in 10.0 mi NW 4.6 mph - N/A   Mostly Cloudy
4:35 PM 45.3 °F 44.0 °F 32.0 °F 60% 29.89 in 7.0 mi NW 3.5 mph - N/A   Scattered Clouds
4:55 PM 45.3 °F - 32.0 °F 60% 29.90 in 10.0 mi Calm Calm - N/A   Clear
5:15 PM 43.9 °F - 32.0 °F 63% 29.91 in 10.0 mi Calm Calm - N/A   Clear
5:35 PM 41.5 °F - 31.8 °F 68% 29.92 in 10.0 mi Calm Calm - N/A   Clear
5:55 PM 41.0 °F 39.0 °F 30.9 °F 67% 29.94 in 10.0 mi NW 3.5 mph - N/A   Clear
6:15 PM 40.8 °F 36.9 °F 30.9 °F 68% 29.95 in 10.0 mi NNW 5.8 mph - N/A   Mostly Cloudy
6:35 PM 39.6 °F 34.7 °F 30.7 °F 71% 29.96 in 10.0 mi NW 6.9 mph - N/A   Mostly Cloudy
6:55 PM 41.0 °F 35.8 °F 30.7 °F 67% 29.97 in 10.0 mi WNW 8.1 mph - N/A   Scattered Clouds
7:15 PM 41.2 °F 36.0 °F 30.7 °F 66% 29.98 in 10.0 mi WNW 8.1 mph - N/A   Clear
7:35 PM 41.4 °F 36.8 °F 30.2 °F 65% 30.00 in 10.0 mi NW 6.9 mph - N/A   Clear
7:55 PM 39.6 °F 36.3 °F 30.0 °F 69% 30.01 in 10.0 mi NW 4.6 mph - N/A   Clear
8:15 PM 39.2 °F 34.2 °F 29.7 °F 69% 30.02 in 10.0 mi NW 6.9 mph - N/A   Clear
8:35 PM 40.1 °F 35.3 °F 29.7 °F 66% 30.04 in 10.0 mi NNW 6.9 mph - N/A   Clear
8:55 PM 38.7 °F 33.6 °F 29.1 °F 69% 30.05 in 10.0 mi NW 6.9 mph - N/A   Clear
9:15 PM 37.6 °F 34.0 °F 29.1 °F 72% 30.06 in 10.0 mi NNW 4.6 mph - N/A   Clear
9:35 PM 37.6 °F 34.0 °F 28.8 °F 70% 30.08 in 10.0 mi NW 4.6 mph - N/A   Clear
9:55 PM 37.8 °F 34.2 °F 28.8 °F 70% 30.08 in 10.0 mi NW 4.6 mph - N/A   Clear
10:15 PM 37.0 °F 34.5 °F 28.4 °F 71% 30.08 in 10.0 mi NW 3.5 mph - N/A   Clear
10:35 PM 36.7 °F 32.0 °F 28.4 °F 72% 30.10 in 10.0 mi NNW 5.8 mph - N/A   Clear
10:55 PM 34.2 °F - 27.5 °F 77% 30.11 in 10.0 mi Calm Calm - N/A   Scattered Clouds
11:55 PM 32.7 °F 29.6 °F 27.0 °F 79% 30.15 in 10.0 mi WNW 3.5 mph - N/A   Scattered Clouds